User: anonymous   Login
Location: Newark
(25.4800°N, 85.7200°E)
Time: 03:16:12
(UTC+00:00)
Language:

Transit 4A - Orbit

View from above orbital plane
View from above orbital plane
View from above satellite
View from above satellite

Ground track
Ground track

The orbit data is extracted from the following two-line orbital elements,

1   116U 61015A   20220.13485580 -.00000068  00000-0  71590-5 0  9993
2   116  66.8098  84.3237 0078934 328.8016  30.8390 13.91773378999350
Epoch (UTC): 07 August 2020 03:14:11
Eccentricity: 0.0078934
inclination: 66.8098°
perigee height: 865 km
apogee height: 980 km
right ascension of ascending node: 84.3237°
argument of perigee: 328.8016°
revolutions per day: 13.91773378
mean anomaly at epoch: 30.8390°
orbit number at epoch: 99935

The dashed part of the orbit path shows where the satellite is in the earth's shadow,  

DLR